KI5RAB Weather Reports


time (UTC)temp
F
wind
direction
speed
knots
gust
knots
rain 1hr
in
rain 24hr
in
rain mn
in
humidity
%
barometer
mb
20260510143651 79 321 0.0 0.0 0.00 0.00 0.00 78 1016.4
20260510143148 79 333 1.7 1.7 0.00 0.00 0.00 78 1016.3
20260510142644 79 326 1.7 1.7 0.00 0.00 0.00 77 1016.2
20260510142141 78 333 0.0 0.9 0.00 0.00 0.00 80 1016.2
20260510141638 77 331 1.7 2.6 0.00 0.00 0.00 82 1016.3
20260510141137 77 300 1.7 1.7 0.00 0.00 0.00 82 1016.1
20260510140632 77 321 0.9 1.7 0.00 0.00 0.00 83 1016.0
20260510140132 77 11 0.9 0.9 0.00 0.00 0.00 83 1015.9
20260510135627 77 312 0.0 0.9 0.00 0.00 0.00 82 1015.9
20260510135124 77 314 0.0 0.9 0.00 0.00 0.00 83 1015.9
20260510134621 76 321 0.0 0.9 0.00 0.00 0.00 84 1015.9
20260510134118 76 316 0.0 0.0 0.00 0.00 0.00 84 1015.8
20260510133614 76 58 0.9 1.7 0.00 0.00 0.00 84 1015.8
20260510133109 77 312 0.0 0.0 0.00 0.00 0.00 82 1015.7
20260510132606 76 320 0.0 0.0 0.00 0.00 0.00 84 1015.6
20260510132103 75 319 0.0 0.0 0.00 0.00 0.00 84 1015.6
20260510131601 74 320 0.0 0.0 0.00 0.00 0.00 86 1015.6
20260510131058 73 320 0.9 0.9 0.00 0.00 0.00 87 1015.5
20260510130554 73 313 0.9 0.9 0.00 0.00 0.00 86 1015.4
20260510130052 73 318 0.9 0.9 0.00 0.00 0.00 86 1015.1
20260510125548 72 320 0.0 0.0 0.00 0.00 0.00 86 1015.2
20260510125044 71 325 0.0 0.0 0.00 0.00 0.00 87 1015.2
20260510124541 70 327 0.0 0.0 0.00 0.00 0.00 88 1015.1
20260510124038 69 329 0.0 0.0 0.00 0.00 0.00 89 1015.1
20260510123533 69 351 0.9 0.9 0.00 0.00 0.00 92 1015.2
20260510123030 67 321 0.0 0.0 0.00 0.00 0.00 93 1015.4
20260510122525 67 325 0.0 0.0 0.00 0.00 0.00 94 1015.0
20260510122022 67 325 0.0 0.0 0.00 0.00 0.00 95 1015.0
20260510121519 66 322 0.0 0.0 0.00 0.00 0.00 95 1015.0
20260510121016 65 321 0.0 0.0 0.00 0.00 0.00 95 1014.9
20260510120514 65 325 0.0 0.0 0.00 0.00 0.00 95 1014.9
20260510120010 65 326 0.0 0.0 0.00 0.00 0.00 95 1014.7
20260510115507 65 326 0.0 0.0 0.00 0.00 0.00 95 1014.7
20260510115003 65 326 0.0 0.0 0.00 0.00 0.00 95 1014.8
20260510114459 65 323 0.0 0.0 0.00 0.00 0.00 95 1014.6
20260510113955 65 325 0.0 0.0 0.00 0.00 0.00 95 1014.8
20260510113450 65 326 0.0 0.0 0.00 0.00 0.00 95 1014.9
20260510112948 65 323 0.0 0.0 0.00 0.00 0.00 95 1015.0
20260510112445 65 324 0.0 0.0 0.00 0.00 0.00 95 1014.7
20260510111941 65 324 0.0 0.0 0.00 0.00 0.00 95 1014.7
20260510111437 65 324 0.0 0.0 0.00 0.00 0.00 95 1014.9
20260510110933 65 325 0.0 0.0 0.00 0.00 0.00 94 1014.5
20260510110430 66 324 0.0 0.0 0.00 0.00 0.00 94 1014.8
20260510105926 66 323 0.0 0.0 0.00 0.00 0.00 94 1014.7
20260510105421 66 322 0.0 0.0 0.00 0.00 0.00 94 1014.7
20260510104916 66 326 0.0 0.0 0.00 0.00 0.00 94 1014.8
20260510104413 66 322 0.0 0.0 0.00 0.00 0.00 94 1014.7
20260510103909 66 318 0.0 0.0 0.00 0.00 0.00 94 1014.8
20260510103402 66 318 0.0 0.0 0.00 0.00 0.00 94 1014.8
20260510102857 66 318 0.0 0.0 0.00 0.00 0.00 94 1014.9
20260510102353 66 325 0.0 0.0 0.00 0.00 0.00 93 1014.8
20260510101850 66 337 0.0 0.0 0.00 0.00 0.00 94 1015.0
20260510101348 66 328 0.0 0.0 0.00 0.00 0.00 93 1014.9
20260510100845 67 317 0.0 0.0 0.00 0.00 0.00 93 1015.0
20260510100342 67 325 0.0 0.0 0.00 0.00 0.00 93 1015.1
20260510095838 67 335 0.0 0.0 0.00 0.00 0.00 93 1015.0
20260510095333 67 318 0.0 0.0 0.00 0.00 0.00 93 1014.9
20260510094833 67 320 0.0 0.0 0.00 0.00 0.00 93 1015.0
20260510094328 67 320 0.0 0.0 0.00 0.00 0.00 93 1014.8
20260510093825 67 320 0.0 0.0 0.00 0.00 0.00 93 1014.7
20260510093321 67 320 0.0 0.0 0.00 0.00 0.00 93 1014.9
20260510092817 67 320 0.0 0.0 0.00 0.00 0.00 93 1014.8
20260510092313 67 320 0.0 0.0 0.00 0.00 0.00 92 1014.7
20260510091809 68 319 0.0 0.0 0.00 0.00 0.00 92 1014.7
20260510091306 68 323 0.0 0.0 0.00 0.00 0.00 92 1014.6
20260510090803 68 323 0.0 0.0 0.00 0.00 0.00 92 1014.7
20260510090300 68 323 0.0 0.0 0.00 0.00 0.00 92 1014.5
20260510085755 68 327 0.0 0.0 0.00 0.00 0.00 91 1014.7
20260510085249 68 327 0.0 0.0 0.00 0.00 0.00 92 1014.8
20260510084745 68 318 0.0 0.0 0.00 0.00 0.00 92 1014.6
20260510084243 68 323 0.0 0.0 0.00 0.00 0.00 92 1014.6
20260510083739 68 324 0.0 0.0 0.00 0.00 0.00 91 1014.4
20260510083236 68 325 0.0 0.0 0.00 0.00 0.00 91 1014.5
20260510082732 69 325 0.0 0.0 0.00 0.00 0.00 91 1014.5
20260510082229 69 326 0.0 0.0 0.00 0.00 0.00 90 1014.4
20260510081728 69 325 0.0 0.0 0.00 0.00 0.00 90 1014.5
20260510081224 69 323 0.0 0.0 0.00 0.00 0.00 90 1014.6
20260510080719 69 321 0.0 0.0 0.00 0.00 0.00 90 1014.3
20260510080215 69 323 0.0 0.0 0.00 0.00 0.00 89 1014.4
20260510075712 70 322 0.0 0.0 0.00 0.00 0.00 88 1014.6
20260510075210 70 322 0.0 0.0 0.00 0.00 0.00 88 1014.6
20260510074707 70 322 0.0 0.0 0.00 0.00 0.00 88 1014.5
20260510074203 71 323 0.0 0.0 0.00 0.00 0.00 87 1014.4
20260510073700 71 327 0.0 0.0 0.00 0.00 0.00 87 1014.5
20260510073155 71 330 0.0 0.0 0.00 0.00 0.00 86 1014.4
20260510072651 71 322 0.0 0.0 0.00 0.00 0.00 86 1014.3
20260510072148 72 323 0.0 0.0 0.00 0.00 0.00 85 1014.4
20260510071644 72 322 0.0 0.0 0.00 0.00 0.00 84 1014.4
20260510071142 73 325 0.0 0.0 0.00 0.00 0.00 82 1014.4
20260510070639 73 327 0.0 0.0 0.00 0.00 0.00 82 1014.6
20260510070137 73 326 0.0 0.0 0.00 0.00 0.00 82 1014.7
20260510065631 73 321 0.0 0.0 0.00 0.00 0.00 81 1014.7
20260510065128 74 323 0.0 0.0 0.00 0.00 0.00 80 1014.7
20260510064624 74 323 0.0 0.0 0.00 0.00 0.00 80 1014.5
20260510064121 74 324 0.0 0.0 0.00 0.00 0.00 79 1014.5
20260510063618 75 325 0.0 0.0 0.00 0.00 0.00 79 1014.5
20260510063115 74 320 0.0 0.0 0.00 0.00 0.00 79 1014.5
20260510062611 75 325 0.0 0.0 0.00 0.00 0.00 78 1014.6
20260510062107 75 321 0.0 0.0 0.00 0.00 0.00 78 1014.7
20260510061603 75 325 0.0 0.0 0.00 0.00 0.00 77 1014.7
20260510061100 76 326 0.0 0.0 0.00 0.00 0.00 76 1014.7
20260510060556 76 330 0.0 0.0 0.00 0.00 0.00 76 1014.6
20260510060053 76 340 0.0 0.0 0.00 0.00 0.00 76 1014.6
20260510055548 76 328 0.0 0.0 0.00 0.00 0.00 77 1014.3
20260510055047 75 315 0.0 0.0 0.00 0.00 0.00 78 1014.3
20260510054543 75 319 0.0 0.0 0.00 0.00 0.00 78 1014.3
20260510054037 75 321 0.0 0.0 0.00 0.00 0.00 78 1014.3
20260510053533 75 324 0.0 0.0 0.00 0.00 0.00 78 1014.5
20260510053030 76 320 0.0 0.9 0.00 0.00 0.00 77 1014.4
20260510052526 76 323 0.0 0.0 0.00 0.00 0.00 76 1014.4
20260510052022 77 325 0.0 0.0 0.00 0.00 0.00 75 1014.1
20260510051517 77 320 0.0 0.0 0.00 0.00 0.00 74 1014.2
20260510051014 77 327 0.0 0.0 0.00 0.00 0.00 74 1014.0
20260510050512 78 323 0.0 0.0 0.00 0.00 0.00 73 1014.2
20260510050008 78 326 0.0 0.0 0.00 0.00 0.00 73 1014.0
20260510045506 78 341 0.9 1.7 0.00 0.00 0.00 73 1014.1
20260510045001 78 344 0.9 0.9 0.00 0.00 0.00 72 1013.9
20260510044459 79 331 0.0 0.9 0.00 0.00 0.00 71 1013.9
20260510043955 79 336 0.0 0.9 0.00 0.00 0.00 71 1014.0
20260510043451 79 326 0.0 0.0 0.00 0.00 0.00 71 1014.0
20260510042950 79 338 0.0 0.9 0.00 0.00 0.00 70 1014.1
20260510042446 78 339 0.9 1.7 0.00 0.00 0.00 71 1014.0
20260510041941 78 9 1.7 2.6 0.00 0.00 0.00 72 1014.1
20260510041439 76 337 0.0 0.0 0.00 0.00 0.00 76 1013.8
20260510040937 76 324 0.0 0.0 0.00 0.00 0.00 76 1013.9
20260510040433 77 324 0.0 0.0 0.00 0.00 0.00 76 1013.7
20260510035928 77 323 0.0 0.0 0.00 0.00 0.00 75 1013.8
20260510035425 77 326 0.0 0.0 0.00 0.00 0.00 75 1013.7
20260510034924 78 326 0.0 0.0 0.00 0.00 0.00 74 1013.8
20260510034423 78 326 0.0 0.0 0.00 0.00 0.00 73 1013.7
20260510033919 78 323 0.0 0.0 0.00 0.00 0.00 73 1013.4
20260510033416 78 324 0.0 0.0 0.00 0.00 0.00 72 1013.6
20260510032912 79 324 0.0 0.0 0.00 0.00 0.00 71 1013.4
20260510032409 79 326 0.0 0.0 0.00 0.00 0.00 71 1013.5
20260510031905 80 325 0.0 0.0 0.00 0.00 0.00 70 1013.4
20260510031400 80 324 0.0 0.0 0.00 0.00 0.00 68 1013.4
20260510030855 81 324 0.0 0.0 0.00 0.00 0.00 67 1013.2
20260510030352 81 327 0.0 0.0 0.00 0.00 0.00 66 1013.4
20260510025850 82 324 0.0 0.0 0.00 0.00 0.00 65 1013.2
20260510025347 82 335 0.0 0.0 0.00 0.00 0.00 65 1013.2
20260510024844 82 327 0.0 0.0 0.00 0.00 0.00 64 1013.2
20260510024340 82 323 0.0 0.0 0.00 0.00 0.00 63 1013.0
20260510023836 83 325 0.0 0.9 0.00 0.00 0.00 62 1013.1
20260510023333 83 331 0.0 0.0 0.00 0.00 0.00 61 1013.2
20260510022831 83 329 0.0 0.0 0.00 0.00 0.00 61 1012.8
20260510022329 83 335 0.9 0.9 0.00 0.00 0.00 60 1013.0
20260510021828 83 343 0.0 0.0 0.00 0.00 0.00 59 1012.9
20260510021327 83 26 1.7 2.6 0.00 0.00 0.00 59 1012.8
20260510020823 83 332 0.0 0.0 0.00 0.00 0.00 60 1012.8
20260510020323 83 315 0.0 0.9 0.00 0.00 0.00 59 1012.8
20260510015819 83 342 0.0 0.9 0.00 0.00 0.00 58 1012.8
20260510015315 84 327 0.9 0.9 0.00 0.00 0.00 57 1012.7
20260510014810 84 60 0.9 1.7 0.00 0.00 0.00 57 1012.5
20260510014308 84 324 0.0 0.9 0.00 0.00 0.00 56 1012.5
20260510013804 84 53 0.9 1.7 0.00 0.00 0.00 55 1012.3
20260510013259 85 334 0.9 0.9 0.00 0.00 0.00 55 1012.0
20260510012755 85 332 0.0 0.0 0.00 0.00 0.00 55 1012.0
20260510012249 86 35 1.7 2.6 0.00 0.00 0.00 55 1012.2
20260510011749 86 333 0.9 0.9 0.00 0.00 0.00 56 1011.8
20260510011245 86 336 0.0 0.0 0.00 0.00 0.00 58 1011.7
20260510010742 86 52 3.5 5.2 0.00 0.00 0.00 58 1011.6
20260510010238 86 324 1.7 2.6 0.00 0.00 0.00 58 1011.8
20260510005736 86 344 1.7 1.7 0.00 0.00 0.00 58 1011.7
20260510005232 86 328 0.0 0.0 0.00 0.00 0.00 57 1011.7
20260510004730 87 324 0.0 0.0 0.00 0.00 0.00 57 1011.5
20260510004227 87 319 0.9 1.7 0.00 0.00 0.00 57 1011.5
20260510003725 87 313 0.0 0.0 0.00 0.00 0.00 56 1011.3
20260510003221 87 323 0.0 0.0 0.00 0.00 0.00 56 1011.3
20260510002719 88 279 0.0 0.9 0.00 0.00 0.00 55 1011.0
20260510002217 89 317 0.0 0.0 0.00 0.00 0.00 55 1011.1
20260510001714 89 328 0.0 0.0 0.00 0.00 0.00 53 1010.9
20260510001213 90 8 1.7 2.6 0.00 0.00 0.00 52 1011.1
20260510000708 90 320 0.0 0.9 0.00 0.00 0.00 52 1011.0
20260510000206 90 340 0.9 1.7 0.00 0.00 0.00 51 1010.7
20260509235702 91 314 0.0 0.9 0.00 0.00 0.00 52 1010.7
20260509235158 91 315 0.0 0.9 0.00 0.00 0.00 53 1010.5
20260509234655 91 249 0.9 1.7 0.00 0.00 0.00 50 1010.5
20260509234152 92 328 0.9 1.7 0.00 0.00 0.00 51 1010.8
20260509233650 92 291 0.9 1.7 0.00 0.00 0.00 49 1011.1
20260509233147 91 321 0.0 0.0 0.00 0.00 0.00 51 1011.1
20260509232643 92 355 0.0 0.9 0.00 0.00 0.00 49 1011.2
20260509232140 92 332 0.0 0.9 0.00 0.00 0.00 49 1011.2
20260509231637 91 316 0.0 0.0 0.00 0.00 0.00 51 1011.1
20260509231134 92 313 0.0 0.0 0.00 0.00 0.00 51 1011.2
20260509230631 93 319 0.0 0.0 0.00 0.00 0.00 49 1011.5
20260509230128 93 4 0.0 0.9 0.00 0.00 0.00 47 1011.1
20260509225624 92 303 0.9 0.9 0.00 0.00 0.00 47 1011.1
20260509225120 93 322 0.9 0.9 0.00 0.00 0.00 50 1010.9
20260509224615 93 295 0.9 0.9 0.00 0.00 0.00 49 1011.0
20260509224112 93 296 1.7 1.7 0.00 0.00 0.00 50 1011.0
20260509223609 93 288 0.0 0.9 0.00 0.00 0.00 50 1011.2
20260509223107 92 317 0.0 0.0 0.00 0.00 0.00 51 1011.1
20260509222603 91 57 2.6 3.5 0.00 0.00 0.00 50 1011.0
20260509222059 93 298 0.9 1.7 0.00 0.00 0.00 48 1011.1
20260509221554 94 311 1.7 1.7 0.00 0.00 0.00 48 1011.0
20260509221051 93 324 0.0 0.0 0.00 0.00 0.00 47 1011.2
20260509220546 94 15 0.9 0.9 0.00 0.00 0.00 47 1011.3
20260509220043 92 317 0.0 0.0 0.00 0.00 0.00 49 1011.2
20260509215538 91 46 1.7 2.6 0.00 0.00 0.00 49 1011.1
20260509215036 91 283 1.7 1.7 0.00 0.00 0.00 52 1011.2
20260509214533 91 320 0.0 0.9 0.00 0.00 0.00 53 1011.2
20260509214030 92 317 0.9 0.9 0.00 0.00 0.00 52 1011.2
20260509213526 94 312 0.0 0.9 0.00 0.00 0.00 50 1011.2
20260509213023 93 311 0.9 0.9 0.00 0.00 0.00 52 1011.3
20260509212520 92 329 0.0 0.9 0.00 0.00 0.00 54 1011.1
20260509212017 93 331 1.7 1.7 0.00 0.00 0.00 51 1011.2
20260509211513 94 264 0.9 0.9 0.00 0.00 0.00 49 1011.6
20260509211010 94 312 0.0 0.0 0.00 0.00 0.00 50 1011.6
20260509210506 93 308 0.9 0.9 0.00 0.00 0.00 50 1011.5
20260509210003 92 321 0.0 0.9 0.00 0.00 0.00 54 1011.8
20260509205457 92 236 0.9 0.9 0.00 0.00 0.00 53 1011.8
20260509204952 91 316 2.6 3.5 0.00 0.00 0.00 54 1011.8
20260509204449 92 279 0.9 0.9 0.00 0.00 0.00 51 1011.8
20260509203946 93 269 2.6 3.5 0.00 0.00 0.00 53 1012.1
20260509203441 93 286 0.0 0.0 0.00 0.00 0.00 50 1011.9
20260509202939 92 316 2.6 2.6 0.00 0.00 0.00 53 1012.1
20260509202435 93 327 0.9 0.9 0.00 0.00 0.00 52 1012.2
20260509201930 92 312 0.9 0.9 0.00 0.00 0.00 53 1012.2
20260509201426 90 303 0.0 0.9 0.00 0.00 0.00 55 1012.3
20260509200923 90 183 0.0 0.9 0.00 0.00 0.00 54 1012.5
20260509200423 91 271 2.6 2.6 0.00 0.00 0.00 54 1012.7
20260509195919 91 259 3.5 5.2 0.00 0.00 0.00 54 1012.7
20260509195415 91 318 1.7 1.7 0.00 0.00 0.00 54 1012.9
20260509194909 91 314 0.0 0.9 0.00 0.00 0.00 56 1013.0
20260509194405 91 288 0.9 0.9 0.00 0.00 0.00 55 1012.9
20260509193902 91 310 0.9 0.9 0.00 0.00 0.00 57 1013.1
20260509193402 92 263 0.9 1.7 0.00 0.00 0.00 53 1013.0
20260509192858 90 322 0.0 0.0 0.00 0.00 0.00 53 1013.2
20260509192354 90 284 1.7 2.6 0.00 0.00 0.00 56 1013.3
20260509191850 91 274 1.7 1.7 0.00 0.00 0.00 55 1013.4
20260509191346 90 349 0.9 0.9 0.00 0.00 0.00 55 1013.3
20260509190842 90 259 3.5 3.5 0.00 0.00 0.00 53 1013.4
20260509190339 90 313 0.0 0.9 0.00 0.00 0.00 57 1013.3
20260509185836 89 302 0.9 1.7 0.00 0.00 0.00 58 1013.4
20260509185333 89 311 0.9 1.7 0.00 0.00 0.00 56 1013.3
20260509184830 88 259 1.7 2.6 0.00 0.00 0.00 58 1013.5
20260509184327 89 303 2.6 3.5 0.00 0.00 0.00 59 1013.6
20260509183824 88 289 0.9 1.7 0.00 0.00 0.00 60 1013.6
20260509183319 87 321 1.7 1.7 0.00 0.00 0.00 61 1013.8
20260509182815 88 322 1.7 2.6 0.00 0.00 0.00 62 1013.7
20260509182312 88 263 0.0 0.9 0.00 0.00 0.00 62 1013.8
20260509181809 90 301 1.7 1.7 0.00 0.00 0.00 60 1013.6
20260509181307 88 312 1.7 1.7 0.00 0.00 0.00 62 1013.9
20260509180804 86 223 0.9 1.7 0.00 0.00 0.00 67 1013.8
20260509180300 86 200 3.5 5.2 0.00 0.00 0.00 67 1013.9
20260509175756 87 269 1.7 2.6 0.00 0.00 0.00 66 1014.0
20260509175253 87 234 1.7 2.6 0.00 0.00 0.00 66 1014.1
20260509174749 86 43 1.7 1.7 0.00 0.00 0.00 68 1014.0
20260509174244 86 345 0.9 0.9 0.00 0.00 0.00 67 1014.0
20260509173741 85 293 0.9 0.9 0.00 0.00 0.00 70 1014.2
20260509173236 86 300 1.7 1.7 0.00 0.00 0.00 69 1014.4
20260509172733 86 324 0.9 0.9 0.00 0.00 0.00 68 1014.5
20260509172229 86 301 0.9 0.9 0.00 0.00 0.00 68 1014.3
20260509171724 85 305 2.6 3.5 0.00 0.00 0.00 69 1014.4
20260509171221 86 271 1.7 2.6 0.00 0.00 0.00 68 1014.5
20260509170718 84 23 0.9 0.9 0.00 0.00 0.00 71 1014.4
20260509170214 84 297 2.6 2.6 0.00 0.00 0.00 72 1014.5
20260509165713 83 252 0.9 1.7 0.00 0.00 0.00 73 1014.6
20260509165208 83 304 0.0 0.9 0.00 0.00 0.00 73 1014.6
20260509164704 82 234 1.7 2.6 0.00 0.00 0.00 74 1014.6
20260509164200 81 286 1.7 2.6 0.00 0.00 0.00 77 1014.5
20260509163658 82 281 1.7 1.7 0.00 0.00 0.00 79 1014.6
20260509163154 83 307 1.7 2.6 0.00 0.00 0.00 76 1014.4
20260509162652 83 313 0.9 1.7 0.00 0.00 0.00 76 1014.3
20260509162147 82 306 0.0 0.0 0.00 0.00 0.00 79 1014.6
20260509161643 81 332 0.9 0.9 0.00 0.00 0.00 80 1014.3
20260509161138 81 262 1.7 2.6 0.00 0.00 0.00 81 1014.4
20260509160634 80 297 0.0 0.9 0.00 0.00 0.00 83 1014.5
20260509160130 80 305 1.7 1.7 0.00 0.00 0.00 84 1014.5
20260509155626 79 251 0.9 1.7 0.00 0.00 0.00 85 1014.3
20260509155123 78 319 0.0 0.9 0.00 0.00 0.00 86 1014.3
20260509154618 77 328 0.0 0.0 0.00 0.00 0.00 91 1014.7
20260509154116 76 300 0.9 0.9 0.00 0.00 0.00 92 1014.7
20260509153613 76 322 0.9 0.9 0.00 0.00 0.00 93 1014.9
20260509153110 74 315 0.9 0.9 0.00 0.00 0.00 94 1015.1
20260509152605 74 323 0.0 0.0 0.00 0.00 0.00 95 1015.5
20260509152103 74 357 0.0 0.9 0.00 0.00 0.00 95 1015.0
20260509151559 74 346 0.0 0.0 0.00 0.00 0.00 95 1015.4
20260509151057 74 316 0.0 0.0 0.00 0.00 0.00 95 1015.2
20260509150554 74 322 0.0 0.0 0.00 0.00 0.00 95 1015.2
20260509150053 74 318 0.9 0.9 0.00 0.00 0.00 95 1015.4
20260509145548 74 333 0.0 0.0 0.00 0.00 0.00 95 1015.2
20260509145042 74 342 0.0 0.0 0.00 0.00 0.00 95 1015.4
20260509144535 74 58 0.9 1.7 0.00 0.00 0.00 95 1015.4